SCP
0 0 0 0 -0 -0 -0 -0 0 0 0 0 0 0 0 0 0 0 0 0 0 0 0 0 0 0 0 0 0 0 0 0 0 0 0 0 0 0 0 0 0 0 0 0 0 0 0
0 0 -0 -0 -0 -0 -0 -0 0 0 0 0 0 0 0 0 0 0 0 0 0 0 0 0 0 0 0 0 0 0 0 0 0 0 0 0 0 0 0 0 0 0 0 0 0 0 0
-0 -0 0 0 -0 -0 -0 -0 0 0 0 0 0 0 0 0 0 0 0 0 0 0 0 0 0 0 0 0 0 0 0 0 0 0 0 0 0 0 0 0 0 0 0 0 0 0 0
0 0 0 0 -0 -0 -0 -0 0 0 0 0 0 0 0 0 0 0 0 0 0 0 0 0 0 0 0 0 0 0 0 0 0 0 0 0 0 0 0 0 0 0 0 0 0 0 0
0 0 0 0 0 0 0 0 0 0 0 0 0 0 0 0 0 0 0 0 0 -0 0 0 0 0 0 0 0 0 0 0 0 0 0 0 0 0 0 0 0 0 0 0 0 0 0
0 0 0 0 0 0 0 0 0 0 0 0 0 0 0 0 0 0 0 0 0 0 0 0 0 0 0 0 0 0 0 0 0 0 0 0 0 0 0 0 0 0 0 0 0 0 0
0 0 0 0 0 0 0 0 0 0 0 0 0 0 0 0 0 0 0 0 0 0 0 0 0 0 0 0 0 0 0 0 0 0 0 0 0 0 0 0 0 0 0 0 0 0 0
0 0 0 0 0 0 0 0 0 0 0 0 0 0 0 0 0 0 -0 0 0 0 0 0 0 0 0 0 0 0 0 0 0 0 0 0 0 0 0 0 0 0 0 0 0 0 0
0 0 0 0 0 0 0 0 0 0 0 0 0 0 0 0 0 0 0 0 0 0 0 0 0 0 0 0 0 0 0 0 0 0 0 0 0 0 0 0 0 0 0 0 0 0 0
0 0 0 0 0 0 0 0 0 0 0 0 0 0 0 0 0 0 0 0 0 0 0 0 0 0 0 0 0 0 0 0 0 0 0 0 0 0 0 0 0 0 0 0 0 0 0
0 0 0 0 0 0 0 0 0 0 0 0 0 0 0 0 0 0 0 0 0 0 0 0 0 0 0 0 0 0 0 0 0 0 0 0 0 0 0 0 0 0 0 0 0 0 0
0 0 0 0 0 0 0 0 0 0 0 0 0 0 0 0 0 0 0 0 0 0 0 0 0 0 0 0 0 0 0 0 0 0 0 0 0 0 0 0 0 0 0 0 0 0 0
0 0 0 0 0 0 0 0 0 0 0 0 0 0 0 0 0 0 0 0 0 0 0 0 0 0 0 0 0 0 0 0 0 0 0 0 0 0 0 0 0 0 0 0 0 0 0
0 0 0 0 0 0 0 0 0 0 0 0 0 0 0 0 0 0 0 0 0 0 0 0 0 0 0 0 0 0 0 0 0 0 0 0 0 0 0 0 0 0 0 0 0 0 0
0 0 0 0 0 0 0 0 0 0 0 0 0 0 0 0 0 0 0 0 0 0 0 0 0 0 0 0 0 0 0 0 0 0 0 0 0 0 0 0 0 0 0 0 0 0 0
0 0 0 0 0 0 0 0 0 0 0 0 0 0 0 0 0 0 0 0 0 0 0 0 0 0 0 0 0 0 0 0 0 0 0 0 0 0 0 0 0 0 0 0 0 0 0
0 0 0 0 0 0 0 0 0 0 0 0 0 0 0 0 0 0 0 0 0 0 0 0 0 0 0 0 0 0 0 0 0 0 0 0 0 0 0 0 0 -0 0 0 0 0 0
0 0 0 0 0 0 0 0 0 0 0 0 0 0 0 0 0 0 0 0 0 0 0 0 0 0 0 0 0 0 0 0 0 0 0 0 0 0 0 0 0 0 0 0 0 0 0
0 0 0 0 0 0 0 0 0 0 0 0 0 0 0 0 0 0 0 0 0 0 0 0 0 0 0 0 0 0 0 0 0 0 0 0 0 0 0 0 0 0 0 0 0 0 0
0 0 0 0 0 0 0 0 0 0 0 0 0 0 0 0 0 0 0 0 0 0 0 0 0 0 0 0 0 0 0 0 0 0 0 0 0 0 0 0 0 0 0 0 0 0 0
0 0 0 0 0 0 0 0 0 0 0 0 0 0 0 0 0 0 0 0 0 0 0 0 0 0 0 0 0 0 0 0 0 0 0 0 0 0 0 0 0 0 0 0 0 0 0
0 0 0 0 0 0 0 0 0 0 0 0 0 0 0 0 0 0 0 0 0 0 0 0 0 0 0 0 0 0 0 0 0 0 0 0 0 0 0 0 0 0 -0 -0 0 0 0
0 0 0 0 0 0 0 0 0 0 0 0 0 0 0 0 0 0 0 0 0 0 0 0 0 0 0 0 0 0 0 0 0 0 0 0 0 0 0 0 0 0 0 0 0 0 0
0 0 0 0 0 0 0 0 0 0 0 0 0 0 0 0 0 0 0 0 0 0 0 0 0 0 0 0 0 0 0 0 0 -0 0 0 0 0 0 0 0 -0 0 -0 0 0 0
0 0 0 0 0 0 0 0 0 0 0 0 0 0 0 0 0 0 0 0 0 0 0 0 0 0 0 0 0 0 0 0 -0 0 0 0 0 0 0 0 -0 -0 -0 0 -0 -0 0
0 0 0 0 0 0 0 0 0 0 0 0 0 0 0 0 0 0 0 0 0 0 0 0 0 0 0 0 0 0 0 0 0 0 0 0 0 0 0 0 0 0 -0 -0 0 0 -0
0 0 0 0 0 0 0 0 0 0 0 0 0 0 0 0 0 0 0 0 0 0 0 0 0 0 0 0 0 0 0 0 0 0 0 0 0 0 0 0 0 0 -0 0 -0 -0 -0
0 0 0 0 0 0 0 0 0 0 0 0 0 0 0 0 0 0 0 0 0 0 0 0 0 0 0 0 0 0 0 0 0 0 0 0 0 0 0 0 0 0 -0 -0 -0 -0 -0
0 0 0 0 0 0 0 0 0 0 0 0 0 0 0 0 0 0 0 0 0 0 0 0 0 0 0 0 0 0 0 0 0 0 0 0 0 0 0 0 0 -0 -0 -0 0 -0 0
Wind_Speed_500mb
28 27 27 26 26 26 28 29 28 27 26 26 28 31 34 34 35 35 36 38 39 39 38 35 31 25 19 10 16 18 18 13 9 14 26 22 23 18 10 12 14 14 21 36 35 34 30
33 32 31 31 30 30 30 31 30 28 27 27 31 35 38 38 39 40 41 42 43 42 41 35 29 23 12 9 7 20 22 12 12 20 25 23 16 24 25 19 14 20 28 29 32 40 38
33 34 35 34 34 33 32 32 33 32 32 33 35 38 42 45 46 47 46 45 46 46 41 34 25 19 19 20 13 21 22 17 6 9 20 19 20 27 12 13 20 25 12 17 33 38 19
36 37 37 36 36 36 35 34 33 34 35 36 39 42 46 48 50 52 50 46 43 42 37 29 20 13 11 11 17 22 9 8 13 13 21 23 22 13 13 19 24 13 8 6 22 10 23
38 38 39 38 37 35 35 34 34 35 37 38 40 43 46 48 52 54 52 53 44 33 26 19 3 5 12 8 7 8 6 11 17 18 22 16 16 9 12 3 9 5 9 15 15 20 14
40 40 41 38 39 39 37 35 36 36 38 39 40 41 43 46 48 52 54 47 26 21 11 5 5 11 7 10 12 18 9 9 12 12 13 18 8 5 4 7 11 9 10 10 12 12 10
41 43 43 42 39 40 42 38 37 38 39 39 40 39 39 39 42 47 51 39 27 5 10 15 24 36 46 34 35 36 20 6 15 15 10 19 7 14 22 16 17 17 26 27 18 12 11
44 43 43 43 43 44 44 41 38 40 41 39 38 39 38 38 37 35 37 25 22 20 27 38 30 29 20 10 7 5 13 14 13 12 6 9 18 20 24 22 23 20 19 18 18 10 18
43 41 41 42 46 46 45 43 41 41 42 40 38 36 37 39 31 21 31 28 32 18 10 21 6 3 4 4 8 13 2 3 9 9 17 19 18 16 26 26 26 21 12 18 22 8 7
42 42 42 43 45 47 47 45 42 41 44 43 42 40 36 35 15 16 16 24 33 21 8 6 5 5 4 1 3 7 9 6 7 13 17 17 26 22 30 17 15 15 14 20 11 9 15
43 43 44 45 46 47 48 48 48 46 42 43 44 41 34 34 21 15 17 26 22 7 9 12 5 2 11 3 5 8 10 4 9 12 5 13 16 14 12 10 12 18 8 20 11 9 10
48 45 44 46 49 50 51 50 51 50 43 45 40 39 31 25 17 19 16 23 9 6 13 6 6 8 9 11 8 15 18 21 23 8 11 17 26 12 10 19 15 14 10 10 6 6 12
50 48 49 52 55 56 55 55 54 49 47 48 44 42 34 24 17 17 14 10 7 6 3 4 6 6 8 6 9 9 8 23 10 13 14 17 7 8 30 11 16 28 7 5 6 4 21
53 51 58 62 67 65 62 63 62 54 49 48 46 51 36 28 30 18 12 4 10 14 5 3 3 10 6 10 9 13 9 3 24 10 4 9 12 17 26 21 14 17 7 5 12 6 9
60 64 69 71 68 67 67 63 63 64 49 56 50 48 36 30 27 21 14 6 13 8 5 4 7 10 9 12 10 8 9 7 7 8 6 11 9 6 37 19 13 15 10 31 12 11 7
59 64 68 68 70 70 70 65 63 60 49 57 51 39 26 28 25 23 5 18 12 5 8 6 6 1 6 3 7 7 3 7 11 16 8 9 14 10 22 25 20 24 21 9 8 10 12
45 52 61 67 69 73 71 67 64 51 55 49 55 19 27 39 28 20 12 11 8 3 3 1 5 6 7 5 6 4 3 11 11 10 14 5 9 13 21 14 30 15 11 7 4 9 7
48 53 58 64 68 71 68 59 49 51 60 63 45 5 34 47 12 10 8 14 16 13 3 6 4 10 6 3 6 3 4 6 14 13 3 4 4 10 12 16 28 26 24 2 5 11 10
48 51 54 59 62 59 52 41 35 53 55 72 28 12 42 52 11 12 8 18 14 15 14 8 4 5 4 8 9 7 5 11 16 7 4 4 3 8 17 9 10 7 12 12 15 9 11
46 48 49 49 41 38 29 26 37 47 70 67 27 8 8 25 13 10 21 22 9 3 13 13 16 8 8 5 4 6 4 2 10 9 12 10 9 12 10 15 16 28 22 17 18 16 18
44 45 49 48 50 41 22 29 57 79 84 44 13 4 12 11 13 17 27 21 11 8 4 13 5 10 11 7 6 3 5 3 4 15 4 10 11 11 20 20 28 31 37 36 25 24 22
37 39 39 35 38 40 24 11 32 62 61 16 5 6 16 6 15 16 17 21 29 11 15 16 8 21 14 11 12 11 3 5 8 6 7 5 9 8 11 17 24 33 36 40 38 33 30
32 34 30 32 35 37 21 26 28 16 18 33 23 15 11 10 9 12 8 14 17 27 19 23 20 11 12 9 10 5 7 11 18 10 4 5 3 5 16 13 18 24 30 30 34 32 23
25 29 23 30 43 38 29 28 20 27 34 38 35 28 13 6 12 20 17 24 31 30 23 18 34 11 17 14 6 10 24 31 34 33 28 10 7 5 9 3 7 17 16 22 29 36 35
27 19 13 24 29 33 46 53 51 49 52 64 48 29 16 4 17 17 27 39 32 27 14 20 15 22 25 15 9 11 9 12 10 17 20 30 9 5 5 6 20 18 16 14 22 30 15
24 23 21 23 26 32 44 62 66 55 50 57 32 38 15 9 18 25 27 31 10 10 8 18 37 26 19 9 8 6 4 9 8 10 7 12 13 9 3 6 9 6 24 45 14 18 43
17 18 19 22 28 34 28 16 52 50 36 39 40 41 20 5 4 34 12 18 27 15 9 18 18 21 23 5 5 5 7 8 6 5 4 4 2 11 13 10 13 9 18 19 9 10 49
22 23 21 22 23 21 19 29 40 34 38 38 33 49 26 16 19 19 31 27 27 36 11 28 15 3 8 6 7 8 8 8 4 5 5 7 5 7 0 5 10 3 21 13 14 11 35
23 23 24 25 26 23 22 25 22 19 19 61 51 48 33 12 15 27 33 17 39 43 37 51 30 20 16 6 3 1 4 3 1 7 7 6 12 6 11 7 24 40 29 48 36 23 26
Wind_Direction_500mb
358 357 358 359 358 359 3 5 4 5 2 359 355 352 352 350 345 341 338 334 332 332 330 327 324 323 319 282 266 279 292 303 282 212 183 186 219 233 203 231 279 236 255 268 278 294 296
351 352 351 351 351 352 354 356 358 358 354 351 349 350 349 346 343 339 335 332 329 328 328 327 320 316 304 273 224 275 300 294 248 206 196 193 221 232 254 245 208 280 302 291 299 289 288
339 341 344 345 345 344 343 344 347 346 345 343 343 343 345 345 343 340 335 332 328 322 322 322 321 312 284 263 217 268 303 281 260 234 205 200 246 258 302 326 300 289 299 312 285 270 249
326 327 329 333 337 337 335 335 335 337 336 334 334 338 340 340 340 339 337 337 325 317 316 313 315 313 262 280 276 283 281 237 232 234 246 237 281 270 259 279 325 335 313 276 272 250 256
313 314 316 317 320 325 326 325 325 329 329 329 330 334 337 338 339 338 337 333 327 316 310 310 270 338 288 297 189 246 276 207 244 234 249 259 291 288 287 306 342 248 248 254 301 309 198
301 304 305 301 303 312 314 318 319 320 321 324 328 332 336 339 339 337 338 337 323 311 331 360 105 294 217 352 272 282 300 209 224 229 226 230 226 208 336 130 237 236 251 274 266 293 321
300 302 306 309 305 309 312 313 314 315 316 319 323 328 332 336 339 337 342 358 4 334 322 277 259 279 294 286 282 281 264 261 227 245 201 211 174 215 234 228 233 253 268 273 278 291 288
300 299 300 304 307 308 310 314 310 312 314 317 320 325 329 334 341 342 355 35 20 318 310 306 283 256 286 310 312 280 185 219 206 220 241 284 241 230 230 239 245 248 267 289 293 327 327
297 294 295 300 305 308 304 301 304 303 307 313 310 318 327 333 335 355 345 358 350 341 268 304 279 268 206 273 325 52 217 255 241 232 241 227 240 248 226 245 254 256 252 276 269 265 282
295 293 296 297 302 302 302 300 296 296 296 301 308 307 317 326 327 332 312 334 336 342 8 250 229 199 272 38 291 77 346 225 294 232 231 250 249 244 265 263 221 260 232 264 279 333 279
297 296 295 299 304 306 303 303 299 293 290 290 294 308 317 319 320 298 304 322 329 357 343 157 120 95 308 186 355 9 15 296 244 267 25 256 323 321 326 278 265 262 254 260 232 253 321
288 290 292 294 296 296 297 299 296 291 279 284 292 292 299 298 297 287 312 323 323 45 249 102 65 17 27 14 30 21 6 346 283 281 266 261 292 282 301 308 299 300 332 329 269 140 259
283 286 293 293 297 295 297 298 298 290 281 270 280 283 284 278 259 269 296 315 24 173 338 52 70 17 345 328 59 29 7 45 29 1 11 322 299 69 20 6 351 13 46 339 296 178 239
282 284 291 293 294 293 295 298 293 286 275 267 267 269 263 258 254 258 244 90 191 241 80 345 74 290 80 358 49 16 47 87 41 44 356 352 331 11 33 37 325 302 279 222 276 243 284
286 284 289 287 290 291 292 294 289 283 270 259 257 263 251 243 242 231 179 209 211 205 123 134 261 220 133 31 81 68 33 105 50 44 80 351 277 360 46 10 330 326 34 303 253 236 239
271 280 286 289 291 293 294 292 285 273 258 254 259 238 225 217 222 203 168 227 244 122 149 216 216 354 124 111 96 91 45 45 102 61 86 65 297 26 4 342 37 356 310 336 338 265 232
280 283 286 290 293 293 293 291 278 256 245 244 233 189 189 199 197 175 211 226 224 157 205 168 144 115 86 117 100 111 168 72 44 55 67 69 186 282 7 8 331 332 303 318 253 250 278
292 293 295 299 300 298 295 287 275 224 236 230 200 178 179 178 146 193 204 187 195 162 75 333 75 95 106 121 91 104 110 70 91 87 3 49 247 288 321 301 274 272 285 266 195 309 286
298 300 305 309 308 299 292 278 237 233 236 217 172 159 177 176 187 207 244 194 180 163 160 183 76 109 124 135 128 194 71 37 84 64 86 32 344 333 325 341 34 10 352 327 268 234 260
309 313 315 320 327 309 291 277 252 252 229 203 159 155 139 189 229 189 175 204 185 104 126 124 130 101 103 139 136 160 170 1 343 179 207 245 202 162 225 250 276 296 297 302 284 273 274
311 317 319 330 347 358 338 244 206 196 199 182 157 156 179 176 217 220 187 185 162 141 77 142 143 171 156 118 80 221 209 4 249 287 337 161 215 237 256 271 285 294 297 294 275 262 263
311 314 323 332 342 354 359 260 248 220 187 158 101 116 156 255 178 173 214 207 184 139 170 190 185 178 142 150 166 186 226 174 226 0 352 270 272 289 295 302 295 294 283 278 277 277 278
311 313 317 315 322 329 320 307 295 256 212 217 234 195 156 142 158 165 181 178 181 179 200 188 178 146 144 160 125 157 271 250 243 244 180 235 183 44 276 303 312 290 268 256 262 263 269
330 330 322 309 312 313 300 303 264 273 238 241 228 202 164 195 177 188 182 189 216 189 152 166 180 124 129 115 25 322 289 270 255 250 213 218 124 183 279 311 251 245 282 269 261 266 266
311 322 314 289 285 295 281 278 266 257 242 233 214 186 159 180 181 165 189 203 206 173 148 168 129 121 132 82 53 21 331 6 264 227 215 208 152 229 212 198 274 293 277 2 296 278 275
303 298 290 289 290 281 278 267 258 220 250 228 226 250 166 148 205 173 199 198 164 148 117 118 120 138 112 88 76 120 244 239 283 334 32 131 180 189 181 244 267 273 326 315 289 285 354
300 308 317 317 316 317 320 253 205 218 241 255 256 223 162 180 172 195 235 184 165 145 138 145 133 102 130 97 111 157 245 238 246 203 290 129 234 182 222 246 266 261 299 346 15 316 323
294 299 306 312 324 326 315 227 262 248 251 263 242 188 171 169 188 199 215 185 172 171 147 159 96 132 78 112 139 219 201 241 247 228 262 211 183 213 354 188 270 349 312 342 264 267 322
295 304 309 310 305 301 292 277 321 290 275 245 245 221 180 208 209 214 211 199 213 192 173 163 171 157 148 110 209 207 254 301 185 277 216 273 185 198 187 205 268 311 320 319 300 295 302
Wind_Speed_850mb
28 27 27 26 26 26 28 29 28 27 26 26 28 31 34 34 35 35 36 38 39 39 38 35 31 25 19 10 16 18 18 13 9 14 26 22 23 18 10 12 14 14 21 36 35 34 30
33 32 31 31 30 30 30 31 30 28 27 27 31 35 38 38 39 40 41 42 43 42 41 35 29 23 12 9 7 20 22 12 12 20 25 23 16 24 25 19 14 20 28 29 32 40 38
33 34 35 34 34 33 32 32 33 32 32 33 35 38 42 45 46 47 46 45 46 46 41 34 25 19 19 20 13 21 22 17 6 9 20 19 20 27 12 13 20 25 12 17 33 38 19
36 37 37 36 36 36 35 34 33 34 35 36 39 42 46 48 50 52 50 46 43 42 37 29 20 13 11 11 17 22 9 8 13 13 21 23 22 13 13 19 24 13 8 6 22 10 23
38 38 39 38 37 35 35 34 34 35 37 38 40 43 46 48 52 54 52 53 44 33 26 19 3 5 12 8 7 8 6 11 17 18 22 16 16 9 12 3 9 5 9 15 15 20 14
40 40 41 38 39 39 37 35 36 36 38 39 40 41 43 46 48 52 54 47 26 21 11 5 5 11 7 10 12 18 9 9 12 12 13 18 8 5 4 7 11 9 10 10 12 12 10
41 43 43 42 39 40 42 38 37 38 39 39 40 39 39 39 42 47 51 39 27 5 10 15 24 36 46 34 35 36 20 6 15 15 10 19 7 14 22 16 17 17 26 27 18 12 11
44 43 43 43 43 44 44 41 38 40 41 39 38 39 38 38 37 35 37 25 22 20 27 38 30 29 20 10 7 5 13 14 13 12 6 9 18 20 24 22 23 20 19 18 18 10 18
43 41 41 42 46 46 45 43 41 41 42 40 38 36 37 39 31 21 31 28 32 18 10 21 6 3 4 4 8 13 2 3 9 9 17 19 18 16 26 26 26 21 12 18 22 8 7
42 42 42 43 45 47 47 45 42 41 44 43 42 40 36 35 15 16 16 24 33 21 8 6 5 5 4 1 3 7 9 6 7 13 17 17 26 22 30 17 15 15 14 20 11 9 15
43 43 44 45 46 47 48 48 48 46 42 43 44 41 34 34 21 15 17 26 22 7 9 12 5 2 11 3 5 8 10 4 9 12 5 13 16 14 12 10 12 18 8 20 11 9 10
48 45 44 46 49 50 51 50 51 50 43 45 40 39 31 25 17 19 16 23 9 6 13 6 6 8 9 11 8 15 18 21 23 8 11 17 26 12 10 19 15 14 10 10 6 6 12
50 48 49 52 55 56 55 55 54 49 47 48 44 42 34 24 17 17 14 10 7 6 3 4 6 6 8 6 9 9 8 23 10 13 14 17 7 8 30 11 16 28 7 5 6 4 21
53 51 58 62 67 65 62 63 62 54 49 48 46 51 36 28 30 18 12 4 10 14 5 3 3 10 6 10 9 13 9 3 24 10 4 9 12 17 26 21 14 17 7 5 12 6 9
60 64 69 71 68 67 67 63 63 64 49 56 50 48 36 30 27 21 14 6 13 8 5 4 7 10 9 12 10 8 9 7 7 8 6 11 9 6 37 19 13 15 10 31 12 11 7
59 64 68 68 70 70 70 65 63 60 49 57 51 39 26 28 25 23 5 18 12 5 8 6 6 1 6 3 7 7 3 7 11 16 8 9 14 10 22 25 20 24 21 9 8 10 12
45 52 61 67 69 73 71 67 64 51 55 49 55 19 27 39 28 20 12 11 8 3 3 1 5 6 7 5 6 4 3 11 11 10 14 5 9 13 21 14 30 15 11 7 4 9 7
48 53 58 64 68 71 68 59 49 51 60 63 45 5 34 47 12 10 8 14 16 13 3 6 4 10 6 3 6 3 4 6 14 13 3 4 4 10 12 16 28 26 24 2 5 11 10
48 51 54 59 62 59 52 41 35 53 55 72 28 12 42 52 11 12 8 18 14 15 14 8 4 5 4 8 9 7 5 11 16 7 4 4 3 8 17 9 10 7 12 12 15 9 11
46 48 49 49 41 38 29 26 37 47 70 67 27 8 8 25 13 10 21 22 9 3 13 13 16 8 8 5 4 6 4 2 10 9 12 10 9 12 10 15 16 28 22 17 18 16 18
44 45 49 48 50 41 22 29 57 79 84 44 13 4 12 11 13 17 27 21 11 8 4 13 5 10 11 7 6 3 5 3 4 15 4 10 11 11 20 20 28 31 37 36 25 24 22
37 39 39 35 38 40 24 11 32 62 61 16 5 6 16 6 15 16 17 21 29 11 15 16 8 21 14 11 12 11 3 5 8 6 7 5 9 8 11 17 24 33 36 40 38 33 30
32 34 30 32 35 37 21 26 28 16 18 33 23 15 11 10 9 12 8 14 17 27 19 23 20 11 12 9 10 5 7 11 18 10 4 5 3 5 16 13 18 24 30 30 34 32 23
25 29 23 30 43 38 29 28 20 27 34 38 35 28 13 6 12 20 17 24 31 30 23 18 34 11 17 14 6 10 24 31 34 33 28 10 7 5 9 3 7 17 16 22 29 36 35
27 19 13 24 29 33 46 53 51 49 52 64 48 29 16 4 17 17 27 39 32 27 14 20 15 22 25 15 9 11 9 12 10 17 20 30 9 5 5 6 20 18 16 14 22 30 15
24 23 21 23 26 32 44 62 66 55 50 57 32 38 15 9 18 25 27 31 10 10 8 18 37 26 19 9 8 6 4 9 8 10 7 12 13 9 3 6 9 6 24 45 14 18 43
17 18 19 22 28 34 28 16 52 50 36 39 40 41 20 5 4 34 12 18 27 15 9 18 18 21 23 5 5 5 7 8 6 5 4 4 2 11 13 10 13 9 18 19 9 10 49
22 23 21 22 23 21 19 29 40 34 38 38 33 49 26 16 19 19 31 27 27 36 11 28 15 3 8 6 7 8 8 8 4 5 5 7 5 7 0 5 10 3 21 13 14 11 35
23 23 24 25 26 23 22 25 22 19 19 61 51 48 33 12 15 27 33 17 39 43 37 51 30 20 16 6 3 1 4 3 1 7 7 6 12 6 11 7 24 40 29 48 36 23 26
Wind_Direction_850mb
358 357 358 359 358 359 3 5 4 5 2 359 355 352 352 350 345 341 338 334 332 332 330 327 324 323 319 282 266 279 292 303 282 212 183 186 219 233 203 231 279 236 255 268 278 294 296
351 352 351 351 351 352 354 356 358 358 354 351 349 350 349 346 343 339 335 332 329 328 328 327 320 316 304 273 224 275 300 294 248 206 196 193 221 232 254 245 208 280 302 291 299 289 288
339 341 344 345 345 344 343 344 347 346 345 343 343 343 345 345 343 340 335 332 328 322 322 322 321 312 284 263 217 268 303 281 260 234 205 200 246 258 302 326 300 289 299 312 285 270 249
326 327 329 333 337 337 335 335 335 337 336 334 334 338 340 340 340 339 337 337 325 317 316 313 315 313 262 280 276 283 281 237 232 234 246 237 281 270 259 279 325 335 313 276 272 250 256
313 314 316 317 320 325 326 325 325 329 329 329 330 334 337 338 339 338 337 333 327 316 310 310 270 338 288 297 189 246 276 207 244 234 249 259 291 288 287 306 342 248 248 254 301 309 198
301 304 305 301 303 312 314 318 319 320 321 324 328 332 336 339 339 337 338 337 323 311 331 360 105 294 217 352 272 282 300 209 224 229 226 230 226 208 336 130 237 236 251 274 266 293 321
300 302 306 309 305 309 312 313 314 315 316 319 323 328 332 336 339 337 342 358 4 334 322 277 259 279 294 286 282 281 264 261 227 245 201 211 174 215 234 228 233 253 268 273 278 291 288
300 299 300 304 307 308 310 314 310 312 314 317 320 325 329 334 341 342 355 35 20 318 310 306 283 256 286 310 312 280 185 219 206 220 241 284 241 230 230 239 245 248 267 289 293 327 327
297 294 295 300 305 308 304 301 304 303 307 313 310 318 327 333 335 355 345 358 350 341 268 304 279 268 206 273 325 52 217 255 241 232 241 227 240 248 226 245 254 256 252 276 269 265 282
295 293 296 297 302 302 302 300 296 296 296 301 308 307 317 326 327 332 312 334 336 342 8 250 229 199 272 38 291 77 346 225 294 232 231 250 249 244 265 263 221 260 232 264 279 333 279
297 296 295 299 304 306 303 303 299 293 290 290 294 308 317 319 320 298 304 322 329 357 343 157 120 95 308 186 355 9 15 296 244 267 25 256 323 321 326 278 265 262 254 260 232 253 321
288 290 292 294 296 296 297 299 296 291 279 284 292 292 299 298 297 287 312 323 323 45 249 102 65 17 27 14 30 21 6 346 283 281 266 261 292 282 301 308 299 300 332 329 269 140 259
283 286 293 293 297 295 297 298 298 290 281 270 280 283 284 278 259 269 296 315 24 173 338 52 70 17 345 328 59 29 7 45 29 1 11 322 299 69 20 6 351 13 46 339 296 178 239
282 284 291 293 294 293 295 298 293 286 275 267 267 269 263 258 254 258 244 90 191 241 80 345 74 290 80 358 49 16 47 87 41 44 356 352 331 11 33 37 325 302 279 222 276 243 284
286 284 289 287 290 291 292 294 289 283 270 259 257 263 251 243 242 231 179 209 211 205 123 134 261 220 133 31 81 68 33 105 50 44 80 351 277 360 46 10 330 326 34 303 253 236 239
271 280 286 289 291 293 294 292 285 273 258 254 259 238 225 217 222 203 168 227 244 122 149 216 216 354 124 111 96 91 45 45 102 61 86 65 297 26 4 342 37 356 310 336 338 265 232
280 283 286 290 293 293 293 291 278 256 245 244 233 189 189 199 197 175 211 226 224 157 205 168 144 115 86 117 100 111 168 72 44 55 67 69 186 282 7 8 331 332 303 318 253 250 278
292 293 295 299 300 298 295 287 275 224 236 230 200 178 179 178 146 193 204 187 195 162 75 333 75 95 106 121 91 104 110 70 91 87 3 49 247 288 321 301 274 272 285 266 195 309 286
298 300 305 309 308 299 292 278 237 233 236 217 172 159 177 176 187 207 244 194 180 163 160 183 76 109 124 135 128 194 71 37 84 64 86 32 344 333 325 341 34 10 352 327 268 234 260
309 313 315 320 327 309 291 277 252 252 229 203 159 155 139 189 229 189 175 204 185 104 126 124 130 101 103 139 136 160 170 1 343 179 207 245 202 162 225 250 276 296 297 302 284 273 274
311 317 319 330 347 358 338 244 206 196 199 182 157 156 179 176 217 220 187 185 162 141 77 142 143 171 156 118 80 221 209 4 249 287 337 161 215 237 256 271 285 294 297 294 275 262 263
311 314 323 332 342 354 359 260 248 220 187 158 101 116 156 255 178 173 214 207 184 139 170 190 185 178 142 150 166 186 226 174 226 0 352 270 272 289 295 302 295 294 283 278 277 277 278
311 313 317 315 322 329 320 307 295 256 212 217 234 195 156 142 158 165 181 178 181 179 200 188 178 146 144 160 125 157 271 250 243 244 180 235 183 44 276 303 312 290 268 256 262 263 269
330 330 322 309 312 313 300 303 264 273 238 241 228 202 164 195 177 188 182 189 216 189 152 166 180 124 129 115 25 322 289 270 255 250 213 218 124 183 279 311 251 245 282 269 261 266 266
311 322 314 289 285 295 281 278 266 257 242 233 214 186 159 180 181 165 189 203 206 173 148 168 129 121 132 82 53 21 331 6 264 227 215 208 152 229 212 198 274 293 277 2 296 278 275
303 298 290 289 290 281 278 267 258 220 250 228 226 250 166 148 205 173 199 198 164 148 117 118 120 138 112 88 76 120 244 239 283 334 32 131 180 189 181 244 267 273 326 315 289 285 354
300 308 317 317 316 317 320 253 205 218 241 255 256 223 162 180 172 195 235 184 165 145 138 145 133 102 130 97 111 157 245 238 246 203 290 129 234 182 222 246 266 261 299 346 15 316 323
294 299 306 312 324 326 315 227 262 248 251 263 242 188 171 169 188 199 215 185 172 171 147 159 96 132 78 112 139 219 201 241 247 228 262 211 183 213 354 188 270 349 312 342 264 267 322
295 304 309 310 305 301 292 277 321 290 275 245 245 221 180 208 209 214 211 199 213 192 173 163 171 157 148 110 209 207 254 301 185 277 216 273 185 198 187 205 268 311 320 319 300 295 302